x

Virginia Beach 64 Nm East Of Virginia Beach, Va (44014) Wave Buoy

2:50am - Thu 23rd Nov 2017 All times are EST. -5 hours from GMT.

  • Sig Wave height 6.6ft
  • Swell Direction
  • Peak Period 7s
  • Average Period 6s
  • Wind
    16mph, 22mph gusts
  • Sea Temp 61°f
  • Air Temp 50°f
  • Sea Pressure 1019.7mb
  • Virginia Beach 64 Nm East Of Virginia Beach, Va
  • Virginia Beach 64 Nm East Of Virginia Beach, Va

More Historic Weather Station data

Upgrade to MSW Pro to gain access to the past 30 days of data for over 8000 Wavebouys and Weather Stations around the globe.

Join

Comparision Forecast

View Surf forecast
   
Thu 11/23 2:50am 6.5ft 7s 6s 16 22 mph 1019.7mb 61f 50f
1:50am 7ft 7s 6s 16 22 mph 1019.6mb 61f 50f
12:50am 7.5ft 8s 6s 18 27 mph 1019.7mb 62f 51f
Wed 11/22 11:50pm 8.5ft 7s 6s 20 27 mph 1019.8mb 62f 51f
10:50pm 8.5ft 7s 6s 22 29 mph 1019.3mb 62f 52f
9:50pm 8.5ft 7s 6s 25 29 mph 1018.7mb 62f 53f
8:50pm 9ft 6s 6s 25 31 mph 1018mb 62f 54f
7:50pm 8ft 7s 6s 29 34 mph 1017.4mb 62f 55f
6:50pm 9ft 7s 6s 27 34 mph 1016.2mb 62f 56f
5:50pm 8ft 6s 6s 29 34 mph 1015.4mb 62f 57f
4:50pm 8ft 6s 5s 27 34 mph 1014.7mb 62f 59f
3:50pm 8ft 6s 5s 25 29 mph 1014mb 62f 59f
2:50pm 7ft 8s 5s 27 31 mph 1012.8mb 62f 59f
1:50pm 6ft 8s 5s 27 34 mph 1012mb 62f 60f
12:50pm 5ft 8s 5s 25 29 mph 1011.7mb 62f 60f
11:50am 5ft 8s 5s 25 31 mph 1012.2mb 62f 61f
10:50am 5ft 8s 6s 25 29 mph 1012.4mb 62f 60f
9:50am 6ft 7s 6s 7 7 mph 1011.8mb 62f 62f
8:50am 6.5ft 8s 6s 2 4 mph 1011.8mb 62f 62f
7:50am 7.5ft 8s 6s 7 9 mph 1011.3mb 62f 61f
6:50am 6ft 7s 6s 4 7 mph 1013.3mb 62f 61f
5:50am 5ft 7s 5s 7 7 mph 1013.9mb 62f 61f
4:50am 4.5ft 6s 5s 9 11 mph 1013.8mb 62f 62f
3:50am 4ft 6s 5s 9 11 mph 1014.2mb 63f 64f
2:50am 3.5ft 5s 4s 11 13 mph 1015.2mb 63f 63f
1:50am 3.5ft 6s 5s  -  2 mph 1016.7mb 64f 63f
12:50am 2.5ft 6s 5s 2 4 mph 1017.4mb 64f 66f
Tue 11/21 11:50pm 1.6ft 9s 4s 4 7 mph 1018.6mb 65f 64f
10:50pm 1.6ft 8s 4s 13 16 mph 1019mb 65f 65f
9:50pm 1.6ft 8s 4s 11 13 mph 1019.9mb 65f 64f
8:50pm 1.3ft 8s 4s 11 13 mph 1020.8mb 64f 64f
7:50pm 1.3ft 10s 4s 11 13 mph 1021.4mb 62f 64f
6:50pm 1ft 8s 4s 9 11 mph 1022mb 62f 63f
5:50pm 1ft 8s 4s 9 11 mph 1022.2mb 62f 62f
4:50pm 1.3ft 11s 4s 7 7 mph 1022.4mb 62f 61f
3:50pm 1.3ft 7s 4s 4 7 mph 1022.6mb 62f 59f
2:50pm 1.3ft 3s 4s  -  2 mph 1022.7mb 62f 59f
1:50pm 1.6ft 3s 4s 4 7 mph 1023.1mb 61f 59f
12:50pm 1.6ft 3s 4s 4 7 mph 1023.7mb 61f 59f
11:50am 1.6ft 3s 3s 9 11 mph 1024.4mb 61f 59f
10:50am 1.6ft 3s 3s 13 16 mph 1025mb 61f 59f
9:50am 1.6ft 8s 4s 13 16 mph 1025.2mb 61f 59f
8:50am 2ft 4s 4s 13 16 mph 1025mb 60f 58f
7:50am 1.6ft 4s 4s 13 16 mph 1024.7mb 60f 57f
6:50am 1.6ft 4s 4s 13 16 mph 1024.5mb 60f 57f
5:50am 2ft 3s 4s 13 16 mph 1024.6mb 60f 57f
4:50am 2ft 7s 4s 13 16 mph 1024.8mb 60f 56f
3:50am 2ft 3s 4s 16 18 mph 1024.7mb 60f 56f
2:50am 2ft 6s 4s 13 18 mph 1025.2mb 60f 56f
1:50am 2ft 6s 4s 13 16 mph 1025.2mb 60f 55f
12:50am 2ft 5s 5s 11 16 mph 1025.4mb 60f 54f
Mon 11/20 11:50pm 2ft 5s 5s 9 11 mph 1025.1mb 60f 53f
10:50pm 2.5ft 6s 5s 7 11 mph 1025.1mb 60f 53f
9:50pm 2.5ft 6s 5s 2 4 mph 1025mb 60f 52f
7:50pm 3ft 6s 5s 4 7 mph 1025mb 60f 52f
6:50pm 3ft 6s 5s 7 9 mph 1024.9mb 60f 51f
5:50pm 3.5ft 6s 5s 9 13 mph 1024.3mb 60f 51f
4:50pm 4ft 6s 5s 11 13 mph 1024.2mb 60f 50f
3:50pm 4.5ft 7s 5s 13 18 mph 1024.2mb 60f 50f
2:50pm 4.5ft 7s 5s 13 18 mph 1023.7mb 60f 50f
1:50pm 4.5ft 7s 5s 13 20 mph 1023.4mb 60f 50f
12:50pm 4.5ft 6s 5s 13 18 mph 1023.4mb 60f 50f
11:50am 4.5ft 6s 5s 13 18 mph 1023.5mb 60f 49f
10:50am 5ft 6s 5s 11 16 mph 1023.7mb 60f 50f
9:50am 5.5ft 6s 5s 16 20 mph 1023.4mb 60f 50f
8:50am 5.5ft 7s 5s 18 22 mph 1022.4mb 60f 50f
7:50am 5.5ft 7s 5s 18 22 mph 1021.4mb 60f 50f
6:50am 6ft 7s 5s 20 25 mph 1020.1mb 60f 51f
5:50am 6.5ft 8s 5s 16 22 mph 1019.1mb 60f 51f
4:50am 7ft 7s 5s 20 27 mph 1018.4mb 60f 51f
3:50am 7ft 8s 6s 22 27 mph 1017.6mb 60f 51f
2:50am 7ft 8s 6s 20 25 mph 1017.2mb 60f 51f
1:50am 8ft 8s 6s 20 25 mph 1016.3mb 60f 51f
12:50am 8ft 8s 6s 22 29 mph 1015.6mb 61f 52f
Sun 11/19 11:50pm 7.5ft 7s 6s 22 29 mph 1015mb 61f 52f
10:50pm 7.5ft 7s 5s 22 29 mph 1014.3mb 61f 52f
9:50pm 7ft 7s 5s 25 31 mph 1013.6mb 61f 53f
8:50pm 7ft 6s 5s 25 31 mph 1012.3mb 61f 53f
7:50pm 6.5ft 7s 5s 22 27 mph 1011.1mb 61f 55f
6:50pm 6.5ft 7s 6s 20 22 mph 1010.2mb 61f 56f
5:50pm 7ft 7s 5s 20 25 mph 1009mb 61f 56f
4:50pm 8ft 7s 6s 22 27 mph 1007.7mb 61f 57f
3:50pm 8ft 7s 6s 20 25 mph 1006.7mb 61f 56f
2:50pm 9ft 7s 6s 25 29 mph 1005.5mb 62f 57f
1:50pm 8ft 6s 5s 25 29 mph 1004.9mb 62f 57f
12:50pm 7.5ft 5s 5s 25 29 mph 1004.6mb 62f 57f
11:50am 7ft 9s 5s 29 34 mph 1004.2mb 62f 57f
10:50am 7ft 9s 5s 29 36 mph 1003.6mb 62f 60f
9:50am 7ft 8s 5s 27 34 mph 1002.9mb 62f 62f